| time (UTC) | temp F | wind direction | speed knots | gust knots | rain 1hr in | rain 24hr in | rain mn in | humidity % | barometer mb |
| 20260503213031 | 77 | 58 | 0.0 | 5.2 | 0.00 | 0.00 | 0.00 | 21 | 1009.4 |
| 20260503211528 | 77 | 1 | 1.7 | 7.8 | 0.00 | 0.00 | 0.00 | 26 | 1009.8 |
| 20260503210025 | 76 | 252 | 1.7 | 5.2 | 0.00 | 0.00 | 0.00 | 25 | 1010.2 |
| 20260503204522 | 75 | 352 | 2.6 | 7.0 | 0.00 | 0.00 | 0.00 | 25 | 1010.5 |
| 20260503203027 | 75 | 131 | 2.6 | 6.1 | 0.00 | 0.00 | 0.00 | 24 | 1010.8 |
| 20260503201519 | 75 | 37 | 0.9 | 3.5 | 0.00 | 0.00 | 0.00 | 23 | 1011.1 |
| 20260503200015 | 74 | 85 | 0.9 | 4.3 | 0.00 | 0.00 | 0.00 | 25 | 1011.2 |
| 20260503194512 | 74 | 316 | 0.9 | 4.3 | 0.00 | 0.00 | 0.00 | 26 | 1011.5 |
| 20260503193013 | 73 | 86 | 0.0 | 4.3 | 0.00 | 0.00 | 0.00 | 28 | 1011.8 |
| 20260503191518 | 72 | 25 | 1.7 | 6.1 | 0.00 | 0.00 | 0.00 | 30 | 1011.9 |
| 20260503190002 | 71 | 6 | 0.9 | 5.2 | 0.00 | 0.00 | 0.00 | 31 | 1012.2 |
| 20260503184614 | 71 | 330 | 1.7 | 4.3 | 0.00 | 0.00 | 0.00 | 30 | 1012.5 |
| 20260503183055 | 69 | 292 | 1.7 | 4.3 | 0.00 | 0.00 | 0.00 | 32 | 1012.7 |
| 20260503181553 | 67 | 297 | 0.9 | 4.3 | 0.00 | 0.00 | 0.00 | 39 | 1013.0 |
| 20260503180055 | 65 | 283 | 0.9 | 3.5 | 0.00 | 0.00 | 0.00 | 42 | 1013.2 |
| 20260503174551 | 65 | 290 | 0.9 | 3.5 | 0.00 | 0.00 | 0.00 | 44 | 1013.3 |
| 20260503173042 | 63 | 248 | 0.0 | 2.6 | 0.00 | 0.00 | 0.00 | 45 | 1013.6 |
| 20260503171537 | 62 | 58 | 0.9 | 3.5 | 0.00 | 0.00 | 0.00 | 46 | 1013.7 |
| 20260503081533 | 41 | 125 | 0.0 | 1.7 | 0.00 | 0.00 | 0.00 | 83 | 1015.3 |
| 20260503071515 | 43 | 148 | 0.0 | 0.9 | 0.00 | 0.00 | 0.00 | 78 | 1015.0 |
| 20260503054613 | 46 | 104 | 0.0 | 0.9 | 0.00 | 0.00 | 0.00 | 73 | 1014.0 |
| 20260503053100 | 50 | 125 | 0.0 | 2.6 | 0.00 | 0.00 | 0.00 | 68 | 1014.1 |
| 20260503051559 | 48 | 173 | 0.0 | 1.7 | 0.00 | 0.00 | 0.00 | 71 | 1014.0 |
| 20260503050059 | 50 | 94 | 0.0 | 0.9 | 0.00 | 0.00 | 0.00 | 68 | 1013.9 |
| 20260503044558 | 51 | 158 | 0.0 | 0.9 | 0.00 | 0.00 | 0.00 | 65 | 1013.9 |
| 20260503043100 | 52 | 242 | 0.0 | 2.6 | 0.00 | 0.00 | 0.00 | 65 | 1013.7 |
| 20260503041558 | 55 | 122 | 0.0 | 0.9 | 0.00 | 0.00 | 0.00 | 56 | 1013.7 |
| 20260503040057 | 56 | 136 | 0.0 | 6.1 | 0.00 | 0.00 | 0.00 | 57 | 1013.6 |
| 20260503034557 | 58 | 134 | 2.6 | 7.0 | 0.00 | 0.00 | 0.00 | 49 | 1013.4 |
| 20260503033103 | 59 | 112 | 1.7 | 6.1 | 0.00 | 0.00 | 0.00 | 50 | 1013.2 |
| 20260503031556 | 61 | 65 | 2.6 | 7.0 | 0.00 | 0.00 | 0.00 | 47 | 1012.9 |
| 20260503030054 | 62 | 84 | 1.7 | 2.6 | 0.00 | 0.00 | 0.00 | 47 | 1012.8 |
| 20260503024554 | 65 | 100 | 0.0 | 0.9 | 0.00 | 0.00 | 0.00 | 43 | 1012.7 |
| 20260503023057 | 70 | 297 | 0.0 | 2.6 | 0.00 | 0.00 | 0.00 | 33 | 1012.5 |
| 20260503021554 | 73 | 311 | 0.0 | 3.5 | 0.00 | 0.00 | 0.00 | 28 | 1012.4 |
| 20260503020053 | 74 | 308 | 0.9 | 3.5 | 0.00 | 0.00 | 0.00 | 28 | 1012.2 |
| 20260503014601 | 74 | 302 | 2.6 | 5.2 | 0.00 | 0.00 | 0.00 | 26 | 1012.2 |
| 20260503013051 | 75 | 326 | 1.7 | 5.2 | 0.00 | 0.00 | 0.00 | 26 | 1012.1 |
| 20260503011552 | 75 | 277 | 1.7 | 5.2 | 0.00 | 0.00 | 0.00 | 25 | 1012.2 |
| 20260503010051 | 76 | 305 | 3.5 | 5.2 | 0.00 | 0.00 | 0.00 | 24 | 1012.2 |
| 20260503004549 | 76 | 278 | 2.6 | 7.8 | 0.00 | 0.00 | 0.00 | 24 | 1012.4 |
| 20260503003048 | 76 | 339 | 0.9 | 7.0 | 0.00 | 0.00 | 0.00 | 24 | 1012.4 |
| 20260503001549 | 73 | 319 | 0.9 | 4.3 | 0.00 | 0.00 | 0.00 | 26 | 1012.4 |
| 20260503000045 | 74 | 291 | 0.9 | 7.0 | 0.00 | 0.00 | 0.00 | 25 | 1012.4 |
| 20260502234551 | 75 | 299 | 1.7 | 5.2 | 0.00 | 0.00 | 0.00 | 23 | 1012.5 |
| 20260502233043 | 77 | 357 | 0.9 | 4.3 | 0.00 | 0.00 | 0.00 | 22 | 1012.6 |
| 20260502231539 | 76 | 332 | 1.7 | 4.3 | 0.00 | 0.00 | 0.00 | 23 | 1012.8 |
| 20260502230037 | 75 | 45 | 0.9 | 4.3 | 0.00 | 0.00 | 0.00 | 24 | 1013.0 |
| 20260502224543 | 76 | 305 | 0.0 | 2.6 | 0.00 | 0.00 | 0.00 | 24 | 1013.1 |
| 20260502223040 | 76 | 110 | 1.7 | 5.2 | 0.00 | 0.00 | 0.00 | 24 | 1013.2 |
| 20260502221531 | 75 | 151 | 1.7 | 7.0 | 0.00 | 0.00 | 0.00 | 30 | 1013.5 |
| 20260502220029 | 76 | 331 | 0.9 | 7.0 | 0.00 | 0.00 | 0.00 | 27 | 1013.7 |
| 20260502214526 | 75 | 117 | 0.0 | 5.2 | 0.00 | 0.00 | 0.00 | 26 | 1013.9 |